,,,PA_Meas_PMT16A,,PR_Meas_QMR101_102,,RH_Meas_QMH101,,SR_Meas_QMS101,,TA_Meas_QMH101,,GenWind,,GenWind,
date,time,status,PA,status,PR,status,RH,status,SR,status,TA,status,DirAvg,status,SpdAvg,
2012-01-21, 00:00:05,VALID,1009.41,VALID,0,VALID,104,VALID,0,VALID,23.4407,VALID,160,VALID,0,
2012-01-21, 00:01:05,VALID,1009.38,VALID,0,VALID,104,VALID,0.112112,VALID,23.4212,VALID,160,VALID,0,
2012-01-21, 00:02:05,VALID,1009.41,VALID,0,VALID,104,VALID,0,VALID,23.4212,VALID,160,VALID,0.300391,
2012-01-21, 00:03:05,VALID,1009.4,VALID,0,VALID,104,VALID,0,VALID,23.4212,VALID,160,VALID,0.211719,
2012-01-21, 00:04:05,VALID,1009.39,VALID,0,VALID,104,VALID,0,VALID,23.4407,VALID,160,VALID,0.235547,
2012-01-21, 00:05:05,VALID,1009.32,VALID,0,VALID,104,VALID,0,VALID,23.4425,VALID,160,VALID,0.181641,
2012-01-21, 00:06:05,VALID,1009.3,VALID,0,VALID,104,VALID,0,VALID,23.4425,VALID,160,VALID,0.251563,
2012-01-21, 00:07:05,VALID,1009.27,VALID,0,VALID,104,VALID,0,VALID,23.4017,VALID,160,VALID,0.373047,
2012-01-21, 00:08:05,VALID,1009.23,VALID,0,VALID,104,VALID,0,VALID,23.3823,VALID,160,VALID,0.289063,
2012-01-21, 00:09:05,VALID,1009.23,VALID,0,VALID,104,VALID,0,VALID,23.3823,VALID,160,VALID,0.271875,
2012-01-21, 00:10:05,VALID,1009.17,VALID,0,VALID,104,VALID,0,VALID,23.3628,VALID,160,VALID,0.347656,
2012-01-21, 00:11:05,VALID,1009.16,VALID,0,VALID,104,VALID,0,VALID,23.3645,VALID,160,VALID,0.126953,
2012-01-21, 00:12:05,VALID,1009.15,VALID,0,VALID,104,VALID,0,VALID,23.3238,VALID,160,VALID,0,
2012-01-21, 00:13:05,VALID,1009.13,VALID,0,VALID,104,VALID,0,VALID,23.3238,VALID,160,VALID,0,
2012-01-21, 00:14:05,VALID,1009.14,VALID,0,VALID,104,VALID,0,VALID,23.3043,VALID,160,VALID,0,
2012-01-21, 00:15:05,VALID,1009.12,VALID,0,VALID,104,VALID,0,VALID,23.3043,VALID,160,VALID,0,
2012-01-21, 00:16:05,VALID,1009.11,VALID,0,VALID,104,VALID,0,VALID,23.3043,VALID,160,VALID,0.280078,
2012-01-21, 00:17:05,VALID,1009.09,VALID,0,VALID,104,VALID,0,VALID,23.2848,VALID,69,VALID,0.564844,
2012-01-21, 00:18:05,VALID,1009.07,VALID,0,VALID,104,VALID,0,VALID,23.2848,VALID,69,VALID,0.433984,
2012-01-21, 00:19:05,VALID,1009.06,VALID,0,VALID,104,VALID,0,VALID,23.2654,VALID,69,VALID,0.423438,
2012-01-21, 00:20:05,VALID,1009.01,VALID,0,VALID,104,VALID,0,VALID,23.2459,VALID,68,VALID,0.538672,
2012-01-21, 00:21:05,VALID,1009,VALID,0,VALID,104,VALID,0,VALID,23.2459,VALID,47,VALID,0.608594,
2012-01-21, 00:22:05,VALID,1008.97,VALID,0,VALID,104,VALID,0.112112,VALID,23.2459,VALID,42,VALID,0.724219,
2012-01-21, 00:23:05,VALID,1008.94,VALID,0,VALID,104,VALID,0,VALID,23.2459,VALID,41,VALID,0.190625,
2012-01-21, 00:24:05,VALID,1008.95,VALID,0,VALID,104,VALID,0,VALID,23.2264,VALID,41,VALID,0.237891,
2012-01-21, 00:25:05,VALID,1008.91,VALID,0,VALID,104,VALID,0,VALID,23.2459,VALID,41,VALID,0.00546875,
2012-01-21, 00:26:05,VALID,1008.89,VALID,0,VALID,104,VALID,0,VALID,23.2459,VALID,41,VALID,0.157422,
2012-01-21, 00:27:05,VALID,1008.91,VALID,0,VALID,104,VALID,0,VALID,23.2264,VALID,41,VALID,0.157813,
2012-01-21, 00:28:05,VALID,1008.89,VALID,0,VALID,104,VALID,0,VALID,23.2069,VALID,41,VALID,0.145703,
2012-01-21, 00:29:05,VALID,1008.87,VALID,0,VALID,104,VALID,0,VALID,23.2069,VALID,41,VALID,0.108984,
2012-01-21, 00:30:05,VALID,1008.86,VALID,0,VALID,104,VALID,0,VALID,23.2069,VALID,41,VALID,0.0574219,
2012-01-21, 00:31:05,VALID,1008.86,VALID,0,VALID,104,VALID,0.112112,VALID,23.1874,VALID,41,VALID,0.169922,
2012-01-21, 00:32:05,VALID,1008.87,VALID,0,VALID,104,VALID,0,VALID,23.1874,VALID,41,VALID,0.155469,
2012-01-21, 00:33:05,VALID,1008.85,VALID,0,VALID,104,VALID,0,VALID,23.1662,VALID,41,VALID,0.00429688,
2012-01-21, 00:34:05,VALID,1008.85,VALID,0,VALID,104,VALID,0.112112,VALID,23.1874,VALID,41,VALID,0.185156,
2012-01-21, 00:35:05,VALID,1008.9,VALID,0,VALID,104,VALID,0,VALID,23.1892,VALID,41,VALID,0.217187,
2012-01-21, 00:36:05,VALID,1008.89,VALID,0,VALID,104,VALID,0,VALID,23.1485,VALID,41,VALID,0.00585938,
2012-01-21, 00:37:05,VALID,1008.93,VALID,0,VALID,104,VALID,0,VALID,23.1485,VALID,41,VALID,0.136328,
2012-01-21, 00:38:05,VALID,1008.93,VALID,0,VALID,104,VALID,0,VALID,23.1679,VALID,41,VALID,0,
2012-01-21, 00:39:05,VALID,1008.92,VALID,0,VALID,104,VALID,0,VALID,23.1679,VALID,41,VALID,0.167187,
2012-01-21, 00:40:05,VALID,1008.93,VALID,0,VALID,104,VALID,0,VALID,23.1485,VALID,41,VALID,0.0582031,
2012-01-21, 00:41:05,VALID,1008.91,VALID,0,VALID,104,VALID,0,VALID,23.1485,VALID,41,VALID,0.205078,
2012-01-21, 00:42:05,VALID,1008.92,VALID,0,VALID,104,VALID,0,VALID,23.1502,VALID,41,VALID,0.0964844,
2012-01-21, 00:43:05,VALID,1008.9,VALID,0,VALID,104,VALID,0,VALID,23.129,VALID,41,VALID,0,
2012-01-21, 00:44:05,VALID,1008.86,VALID,0,VALID,104,VALID,0,VALID,23.129,VALID,41,VALID,0,
2012-01-21, 00:45:05,VALID,1008.87,VALID,0,VALID,104,VALID,0,VALID,23.1095,VALID,41,VALID,0,
2012-01-21, 00:46:05,VALID,1008.83,VALID,0,VALID,104,VALID,0,VALID,23.129,VALID,41,VALID,0,
2012-01-21, 00:47:05,VALID,1008.79,VALID,0,VALID,104,VALID,0,VALID,23.1502,VALID,41,VALID,0,
2012-01-21, 00:48:05,VALID,1008.76,VALID,0,VALID,104,VALID,0,VALID,23.129,VALID,41,VALID,0,
2012-01-21, 00:49:05,VALID,1008.76,VALID,0,VALID,104,VALID,0,VALID,23.129,VALID,41,VALID,0,
2012-01-21, 00:50:05,VALID,1008.72,VALID,0,VALID,104,VALID,0,VALID,23.129,VALID,41,VALID,0.130469,
2012-01-21, 00:51:05,VALID,1008.71,VALID,0,VALID,104,VALID,0,VALID,23.129,VALID,41,VALID,0.0734375,
2012-01-21, 00:52:05,VALID,1008.71,VALID,0,VALID,104,VALID,0,VALID,23.129,VALID,41,VALID,0,
2012-01-21, 00:53:05,VALID,1008.7,VALID,0,VALID,104,VALID,0,VALID,23.1095,VALID,41,VALID,0,
2012-01-21, 00:54:05,VALID,1008.7,VALID,0,VALID,104,VALID,0,VALID,23.129,VALID,41,VALID,0,
2012-01-21, 00:55:05,VALID,1008.69,VALID,0,VALID,104,VALID,0,VALID,23.129,VALID,41,VALID,0,
2012-01-21, 00:56:05,VALID,1008.69,VALID,0,VALID,104,VALID,0,VALID,23.129,VALID,41,VALID,0,
2012-01-21, 00:57:05,VALID,1008.68,VALID,0,VALID,104,VALID,0.112112,VALID,23.129,VALID,41,VALID,0,
2012-01-21, 00:58:05,VALID,1008.71,VALID,0,VALID,104,VALID,0,VALID,23.0883,VALID,41,VALID,0,
2012-01-21, 00:59:05,VALID,1008.7,VALID,0,VALID,104,VALID,0,VALID,23.09,VALID,41,VALID,0.040625,
2012-01-21, 01:00:05,VALID,1008.67,VALID,0,VALID,104,VALID,0,VALID,23.09,VALID,41,VALID,0.192188,
2012-01-21, 01:01:05,VALID,1008.63,VALID,0,VALID,104,VALID,0,VALID,23.09,VALID,41,VALID,0,
2012-01-21, 01:02:05,VALID,1008.62,VALID,0,VALID,104,VALID,0,VALID,23.09,VALID,41,VALID,0.135547,
2012-01-21, 01:03:05,VALID,1008.63,VALID,0,VALID,104,VALID,0,VALID,23.0705,VALID,41,VALID,0.0410156,
2012-01-21, 01:04:05,VALID,1008.62,VALID,0,VALID,104,VALID,0,VALID,23.0705,VALID,41,VALID,0.100781,
2012-01-21, 01:05:05,VALID,1008.62,VALID,0,VALID,104,VALID,0,VALID,23.09,VALID,41,VALID,0,
2012-01-21, 01:06:05,VALID,1008.6,VALID,0,VALID,104,VALID,0,VALID,23.0705,VALID,41,VALID,0.125391,
2012-01-21, 01:07:05,VALID,1008.61,VALID,0,VALID,104,VALID,0,VALID,23.0705,VALID,41,VALID,0.153906,
2012-01-21, 01:08:05,VALID,1008.59,VALID,0,VALID,104,VALID,0,VALID,23.0705,VALID,41,VALID,0.314063,
2012-01-21, 01:09:05,VALID,1008.6,VALID,0,VALID,104,VALID,0,VALID,23.0918,VALID,41,VALID,0.0238281,
2012-01-21, 01:10:05,VALID,1008.61,VALID,0,VALID,104,VALID,0,VALID,23.0705,VALID,41,VALID,0,
2012-01-21, 01:11:05,VALID,1008.58,VALID,0,VALID,104,VALID,0,VALID,23.0705,VALID,41,VALID,0,
2012-01-21, 01:12:05,VALID,1008.56,VALID,0,VALID,104,VALID,0,VALID,23.0493,VALID,41,VALID,0.0179687,
2012-01-21, 01:13:05,VALID,1008.54,VALID,0,VALID,104,VALID,0,VALID,23.0705,VALID,41,VALID,0.232422,
2012-01-21, 01:14:05,VALID,1008.53,VALID,0,VALID,104,VALID,0,VALID,23.0511,VALID,41,VALID,0,
2012-01-21, 01:15:05,VALID,1008.51,VALID,0,VALID,104,VALID,0,VALID,23.0511,VALID,41,VALID,0,
2012-01-21, 01:16:05,VALID,1008.5,VALID,0,VALID,104,VALID,0,VALID,23.0511,VALID,41,VALID,0,
2012-01-21, 01:17:05,VALID,1008.48,VALID,0,VALID,104,VALID,0,VALID,23.0511,VALID,41,VALID,0,
2012-01-21, 01:18:05,VALID,1008.42,VALID,0,VALID,104,VALID,0,VALID,23.0511,VALID,41,VALID,0,
2012-01-21, 01:19:05,VALID,1008.4,VALID,0,VALID,104,VALID,0,VALID,23.0316,VALID,41,VALID,0.207813,
2012-01-21, 01:20:05,VALID,1008.37,VALID,0,VALID,104,VALID,0,VALID,23.0316,VALID,41,VALID,0.173047,
2012-01-21, 01:21:05,VALID,1008.37,VALID,0,VALID,104,VALID,0,VALID,23.0316,VALID,41,VALID,0.129688,
2012-01-21, 01:22:05,VALID,1008.34,VALID,0,VALID,104,VALID,0,VALID,23.0316,VALID,41,VALID,0,
2012-01-21, 01:23:05,VALID,1008.35,VALID,0,VALID,104,VALID,0,VALID,23.0316,VALID,41,VALID,0,
2012-01-21, 01:24:05,VALID,1008.34,VALID,0,VALID,104,VALID,0,VALID,23.0316,VALID,41,VALID,0,
2012-01-21, 01:25:05,VALID,1008.34,VALID,0,VALID,104,VALID,0,VALID,23.0316,VALID,41,VALID,0,
2012-01-21, 01:26:05,VALID,1008.33,VALID,0,VALID,104,VALID,0,VALID,23.0316,VALID,41,VALID,0.121094,
2012-01-21, 01:27:05,VALID,1008.32,VALID,0,VALID,104,VALID,0,VALID,23.0121,VALID,41,VALID,0,
2012-01-21, 01:28:05,VALID,1008.36,VALID,0,VALID,104,VALID,0,VALID,23.0121,VALID,41,VALID,0,
2012-01-21, 01:29:05,VALID,1008.38,VALID,0,VALID,104,VALID,0,VALID,22.9926,VALID,41,VALID,0,
2012-01-21, 01:30:05,VALID,1008.38,VALID,0,VALID,104,VALID,0,VALID,23.0121,VALID,41,VALID,0,
2012-01-21, 01:31:05,VALID,1008.4,VALID,0,VALID,104,VALID,0,VALID,23.0333,VALID,41,VALID,0,
2012-01-21, 01:32:05,VALID,1008.42,VALID,0,VALID,104,VALID,0,VALID,23.0121,VALID,41,VALID,0,
2012-01-21, 01:33:05,VALID,1008.41,VALID,0,VALID,104,VALID,0,VALID,23.0121,VALID,41,VALID,0,
2012-01-21, 01:34:05,VALID,1008.43,VALID,0,VALID,104,VALID,0,VALID,23.0121,VALID,41,VALID,0,
2012-01-21, 01:35:05,VALID,1008.42,VALID,0,VALID,104,VALID,0,VALID,23.0121,VALID,41,VALID,0,
2012-01-21, 01:36:05,VALID,1008.42,VALID,0,VALID,104,VALID,0,VALID,23.0121,VALID,41,VALID,0,
2012-01-21, 01:37:05,VALID,1008.43,VALID,0,VALID,104,VALID,0,VALID,23.0316,VALID,41,VALID,0,
2012-01-21, 01:38:05,VALID,1008.47,VALID,0,VALID,104,VALID,0,VALID,23.0316,VALID,41,VALID,0,
2012-01-21, 01:39:05,VALID,1008.47,VALID,0,VALID,104,VALID,0,VALID,23.0316,VALID,41,VALID,0,
2012-01-21, 01:40:05,VALID,1008.48,VALID,0,VALID,104,VALID,0,VALID,23.0511,VALID,41,VALID,0,
2012-01-21, 01:41:05,VALID,1008.46,VALID,0,VALID,104,VALID,0,VALID,23.0511,VALID,41,VALID,0,
2012-01-21, 01:42:05,VALID,1008.45,VALID,0,VALID,104,VALID,0,VALID,23.0511,VALID,41,VALID,0,
2012-01-21, 01:43:05,VALID,1008.44,VALID,0,VALID,104,VALID,0,VALID,23.0511,VALID,41,VALID,0,
2012-01-21, 01:44:04,VALID,1008.47,VALID,0,VALID,104,VALID,0,VALID,23.0528,VALID,41,VALID,0,
2012-01-21, 01:45:04,VALID,1008.48,VALID,0,VALID,104,VALID,0,VALID,23.0528,VALID,41,VALID,0,
2012-01-21, 01:46:04,VALID,1008.46,VALID,0,VALID,104,VALID,0,VALID,23.0121,VALID,41,VALID,0,
2012-01-21, 01:47:04,VALID,1008.46,VALID,0,VALID,104,VALID,0,VALID,23.0511,VALID,41,VALID,0,
2012-01-21, 01:48:04,VALID,1008.42,VALID,0,VALID,104,VALID,0,VALID,23.0511,VALID,41,VALID,0,
2012-01-21, 01:49:04,VALID,1008.41,VALID,0,VALID,104,VALID,0,VALID,23.0511,VALID,41,VALID,0,
2012-01-21, 01:50:04,VALID,1008.39,VALID,0,VALID,104,VALID,0,VALID,23.0511,VALID,41,VALID,0,
2012-01-21, 01:51:04,VALID,1008.37,VALID,0,VALID,104,VALID,0,VALID,23.0723,VALID,41,VALID,0.248437,
2012-01-21, 01:52:04,VALID,1008.36,VALID,0,VALID,104,VALID,0,VALID,23.0918,VALID,41,VALID,0.395312,
2012-01-21, 01:53:04,VALID,1008.34,VALID,0,VALID,104,VALID,0,VALID,23.09,VALID,41,VALID,0.519922,
2012-01-21, 01:54:04,VALID,1008.31,VALID,0,VALID,104,VALID,0,VALID,23.0705,VALID,41,VALID,0.535547,
2012-01-21, 01:55:04,VALID,1008.31,VALID,0,VALID,104,VALID,0,VALID,23.0723,VALID,41,VALID,0.454688,
2012-01-21, 01:56:04,VALID,1008.29,VALID,0,VALID,104,VALID,0,VALID,23.0511,VALID,41,VALID,0.417188,
2012-01-21, 01:57:04,VALID,1008.27,VALID,0,VALID,104,VALID,0,VALID,23.0511,VALID,41,VALID,0.417969,
2012-01-21, 01:58:04,VALID,1008.26,VALID,0,VALID,104,VALID,0,VALID,23.0316,VALID,41,VALID,0.422266,
2012-01-21, 01:59:04,VALID,1008.26,VALID,0,VALID,104,VALID,0,VALID,23.0511,VALID,41,VALID,0.309766,
2012-01-21, 02:00:04,VALID,1008.25,VALID,0,VALID,104,VALID,0,VALID,23.0511,VALID,41,VALID,0.564453,
2012-01-21, 02:01:04,VALID,1008.23,VALID,0,VALID,104,VALID,0,VALID,23.0511,VALID,41,VALID,0.157422,
2012-01-21, 02:02:04,VALID,1008.22,VALID,0,VALID,104,VALID,0,VALID,23.0511,VALID,41,VALID,0.0734375,
2012-01-21, 02:03:04,VALID,1008.24,VALID,0,VALID,104,VALID,0,VALID,23.0511,VALID,41,VALID,0.114063,
2012-01-21, 02:04:04,VALID,1008.24,VALID,0,VALID,104,VALID,0,VALID,23.0316,VALID,41,VALID,0.136328,
2012-01-21, 02:05:04,VALID,1008.23,VALID,0,VALID,104,VALID,0,VALID,23.0316,VALID,41,VALID,0,
2012-01-21, 02:06:04,VALID,1008.21,VALID,0,VALID,104,VALID,0,VALID,23.0316,VALID,41,VALID,0.124219,
2012-01-21, 02:07:04,VALID,1008.19,VALID,0,VALID,104,VALID,0,VALID,23.0316,VALID,41,VALID,0,
2012-01-21, 02:08:04,VALID,1008.15,VALID,0,VALID,104,VALID,0,VALID,23.0333,VALID,41,VALID,0,
2012-01-21, 02:09:04,VALID,1008.13,VALID,0,VALID,104,VALID,0,VALID,23.0121,VALID,41,VALID,0.0667969,
2012-01-21, 02:10:04,VALID,1008.12,VALID,0,VALID,104,VALID,0,VALID,23.0121,VALID,41,VALID,0,
2012-01-21, 02:11:04,VALID,1008.11,VALID,0,VALID,104,VALID,0,VALID,23.0138,VALID,41,VALID,0,
2012-01-21, 02:12:04,VALID,1008.08,VALID,0,VALID,104,VALID,0,VALID,23.0121,VALID,41,VALID,0,
2012-01-21, 02:13:04,VALID,1008.07,VALID,0,VALID,104,VALID,0,VALID,23.0333,VALID,41,VALID,0,
2012-01-21, 02:14:04,VALID,1008.05,VALID,0,VALID,104,VALID,0,VALID,23.0121,VALID,41,VALID,0,
2012-01-21, 02:15:04,VALID,1008.03,VALID,0,VALID,104,VALID,0,VALID,23.0316,VALID,41,VALID,0,
2012-01-21, 02:16:04,VALID,1008.02,VALID,0,VALID,104,VALID,0,VALID,23.0316,VALID,41,VALID,0,
2012-01-21, 02:17:04,VALID,1007.99,VALID,0,VALID,104,VALID,0,VALID,23.0511,VALID,41,VALID,0.224219,
2012-01-21, 02:18:04,VALID,1007.96,VALID,0,VALID,104,VALID,0,VALID,23.0705,VALID,41,VALID,0.504687,
2012-01-21, 02:19:04,VALID,1007.99,VALID,0,VALID,104,VALID,0,VALID,23.0705,VALID,41,VALID,0.347266,
2012-01-21, 02:20:04,VALID,1007.98,VALID,0,VALID,104,VALID,0,VALID,23.1112,VALID,41,VALID,0.316016,
2012-01-21, 02:21:04,VALID,1007.98,VALID,0,VALID,104,VALID,0,VALID,23.09,VALID,41,VALID,0.391797,
2012-01-21, 02:22:04,VALID,1008.01,VALID,0,VALID,104,VALID,0,VALID,23.0918,VALID,41,VALID,0.576172,
2012-01-21, 02:23:04,VALID,1008.01,VALID,0,VALID,104,VALID,0,VALID,23.0705,VALID,41,VALID,0.461719,
2012-01-21, 02:24:04,VALID,1008.02,VALID,0,VALID,104,VALID,0,VALID,23.09,VALID,41,VALID,0.171094,
2012-01-21, 02:25:04,VALID,1008.04,VALID,0,VALID,104,VALID,0,VALID,23.0705,VALID,41,VALID,0.392188,
2012-01-21, 02:26:04,VALID,1008.04,VALID,0,VALID,104,VALID,0,VALID,23.09,VALID,41,VALID,0.215625,
2012-01-21, 02:27:04,VALID,1008.08,VALID,0,VALID,104,VALID,0,VALID,23.09,VALID,41,VALID,0,
2012-01-21, 02:28:04,VALID,1008.06,VALID,0,VALID,104,VALID,0,VALID,23.09,VALID,41,VALID,0.00195313,
2012-01-21, 02:29:04,VALID,1008.07,VALID,0,VALID,104,VALID,0,VALID,23.1095,VALID,41,VALID,0,
2012-01-21, 02:30:04,VALID,1008.08,VALID,0,VALID,104,VALID,0,VALID,23.129,VALID,41,VALID,0,
2012-01-21, 02:31:04,VALID,1008.07,VALID,0,VALID,104,VALID,0,VALID,23.1307,VALID,41,VALID,0.275781,
2012-01-21, 02:32:04,VALID,1008.07,VALID,0,VALID,104,VALID,0,VALID,23.1095,VALID,41,VALID,0.324609,
2012-01-21, 02:33:04,VALID,1008.05,VALID,0,VALID,104,VALID,0,VALID,23.1095,VALID,41,VALID,0.173828,
2012-01-21, 02:34:04,VALID,1008.08,VALID,0,VALID,104,VALID,0,VALID,23.09,VALID,41,VALID,0.291406,
2012-01-21, 02:35:04,VALID,1008.08,VALID,0,VALID,104,VALID,0,VALID,23.1095,VALID,41,VALID,0.332812,
2012-01-21, 02:36:04,VALID,1008.09,VALID,0,VALID,104,VALID,0,VALID,23.1112,VALID,41,VALID,0.0394531,
2012-01-21, 02:37:04,VALID,1008.09,VALID,0,VALID,104,VALID,0,VALID,23.1095,VALID,41,VALID,0.191016,
2012-01-21, 02:38:04,VALID,1008.09,VALID,0,VALID,104,VALID,0,VALID,23.1095,VALID,41,VALID,0.266406,
2012-01-21, 02:39:04,VALID,1008.08,VALID,0,VALID,104,VALID,0,VALID,23.1095,VALID,41,VALID,0.168359,
2012-01-21, 02:40:04,VALID,1008.08,VALID,0,VALID,104,VALID,0,VALID,23.129,VALID,41,VALID,0.117969,
2012-01-21, 02:41:04,VALID,1008.08,VALID,0,VALID,104,VALID,0,VALID,23.1095,VALID,41,VALID,0,
2012-01-21, 02:42:04,VALID,1008.08,VALID,0,VALID,104,VALID,0,VALID,23.1095,VALID,41,VALID,0,
2012-01-21, 02:43:04,VALID,1008.08,VALID,0,VALID,104,VALID,0,VALID,23.1095,VALID,41,VALID,0,
2012-01-21, 02:44:04,VALID,1008.02,VALID,0,VALID,104,VALID,0,VALID,23.1095,VALID,41,VALID,0,
2012-01-21, 02:45:04,VALID,1008.04,VALID,0,VALID,104,VALID,0,VALID,23.1095,VALID,41,VALID,0,
2012-01-21, 02:46:04,VALID,1008.04,VALID,0,VALID,104,VALID,0,VALID,23.0883,VALID,41,VALID,0,
2012-01-21, 02:47:04,VALID,1008.02,VALID,0,VALID,104,VALID,0,VALID,23.1095,VALID,41,VALID,0,
2012-01-21, 02:48:04,VALID,1008.03,VALID,0,VALID,104,VALID,0,VALID,23.1095,VALID,41,VALID,0,
2012-01-21, 02:49:04,VALID,1008,VALID,0,VALID,104,VALID,0,VALID,23.1095,VALID,41,VALID,0,
2012-01-21, 02:50:04,VALID,1007.99,VALID,0,VALID,104,VALID,0,VALID,23.1095,VALID,41,VALID,0,
2012-01-21, 02:51:04,VALID,1007.97,VALID,0,VALID,104,VALID,0.112112,VALID,23.129,VALID,41,VALID,0,
2012-01-21, 02:52:04,VALID,1007.95,VALID,0,VALID,104,VALID,0,VALID,23.1095,VALID,41,VALID,0.0882813,
2012-01-21, 02:53:04,VALID,1007.95,VALID,0,VALID,104,VALID,0,VALID,23.1307,VALID,41,VALID,0.00117188,
2012-01-21, 02:54:04,VALID,1007.91,VALID,0,VALID,104,VALID,0,VALID,23.1307,VALID,41,VALID,0,
2012-01-21, 02:55:04,VALID,1007.91,VALID,0,VALID,104,VALID,0,VALID,23.09,VALID,41,VALID,0,
2012-01-21, 02:56:04,VALID,1007.92,VALID,0,VALID,104,VALID,0,VALID,23.0705,VALID,41,VALID,0,
2012-01-21, 02:57:04,VALID,1007.92,VALID,0,VALID,104,VALID,0,VALID,23.0705,VALID,41,VALID,0,
2012-01-21, 02:58:04,VALID,1007.92,VALID,0,VALID,104,VALID,0,VALID,23.0511,VALID,41,VALID,0,
2012-01-21, 02:59:04,VALID,1007.94,VALID,0,VALID,104,VALID,0,VALID,23.0705,VALID,41,VALID,0,
2012-01-21, 03:00:04,VALID,1007.94,VALID,0,VALID,104,VALID,0,VALID,23.0705,VALID,41,VALID,0,
2012-01-21, 03:01:04,VALID,1007.96,VALID,0,VALID,104,VALID,0,VALID,23.0705,VALID,41,VALID,0,
2012-01-21, 03:02:04,VALID,1007.95,VALID,0,VALID,104,VALID,0,VALID,23.0705,VALID,41,VALID,0,
2012-01-21, 03:03:04,VALID,1007.94,VALID,0,VALID,104,VALID,0,VALID,23.0705,VALID,41,VALID,0,
2012-01-21, 03:04:04,VALID,1007.91,VALID,0,VALID,104,VALID,0,VALID,23.0511,VALID,41,VALID,0,
2012-01-21, 03:05:04,VALID,1007.89,VALID,0,VALID,104,VALID,0,VALID,23.0723,VALID,41,VALID,0,
2012-01-21, 03:06:04,VALID,1007.89,VALID,0,VALID,104,VALID,0,VALID,23.0705,VALID,41,VALID,0,
2012-01-21, 03:07:04,VALID,1007.91,VALID,0,VALID,104,VALID,0,VALID,23.09,VALID,41,VALID,0,
2012-01-21, 03:08:04,VALID,1007.89,VALID,0,VALID,104,VALID,0,VALID,23.09,VALID,41,VALID,0,
2012-01-21, 03:09:04,VALID,1007.88,VALID,0,VALID,104,VALID,0,VALID,23.09,VALID,41,VALID,0,
2012-01-21, 03:10:04,VALID,1007.9,VALID,0,VALID,104,VALID,0,VALID,23.09,VALID,41,VALID,0,
2012-01-21, 03:11:04,VALID,1007.88,VALID,0,VALID,104,VALID,0,VALID,23.09,VALID,41,VALID,0,
2012-01-21, 03:12:04,VALID,1007.88,VALID,0,VALID,104,VALID,0,VALID,23.0918,VALID,41,VALID,0,
2012-01-21, 03:13:04,VALID,1007.84,VALID,0,VALID,104,VALID,0,VALID,23.0705,VALID,41,VALID,0,
2012-01-21, 03:14:04,VALID,1007.81,VALID,0,VALID,104,VALID,0,VALID,23.0705,VALID,41,VALID,0,
2012-01-21, 03:15:04,VALID,1007.85,VALID,0,VALID,104,VALID,0,VALID,23.0705,VALID,41,VALID,0,
2012-01-21, 03:16:04,VALID,1007.82,VALID,0,VALID,104,VALID,0,VALID,23.0723,VALID,41,VALID,0,
2012-01-21, 03:17:04,VALID,1007.8,VALID,0,VALID,104,VALID,0,VALID,23.0723,VALID,41,VALID,0,
2012-01-21, 03:18:04,VALID,1007.81,VALID,0,VALID,104,VALID,0,VALID,23.0511,VALID,41,VALID,0,
2012-01-21, 03:19:04,VALID,1007.78,VALID,0,VALID,104,VALID,0,VALID,23.0316,VALID,41,VALID,0,
2012-01-21, 03:20:04,VALID,1007.79,VALID,0,VALID,104,VALID,0,VALID,23.0316,VALID,41,VALID,0,
2012-01-21, 03:21:04,VALID,1007.76,VALID,0,VALID,104,VALID,0,VALID,23.0316,VALID,41,VALID,0.412109,
2012-01-21, 03:22:04,VALID,1007.79,VALID,0,VALID,104,VALID,0,VALID,23.0316,VALID,41,VALID,0.300391,
2012-01-21, 03:23:04,VALID,1007.82,VALID,0,VALID,104,VALID,0,VALID,23.0316,VALID,41,VALID,0.23125,
2012-01-21, 03:24:04,VALID,1007.85,VALID,0,VALID,104,VALID,0,VALID,23.0316,VALID,41,VALID,0.0808594,
2012-01-21, 03:25:04,VALID,1007.82,VALID,0,VALID,104,VALID,0,VALID,23.0528,VALID,41,VALID,0.178125,
2012-01-21, 03:26:04,VALID,1007.85,VALID,0,VALID,104,VALID,0,VALID,23.0333,VALID,41,VALID,0.0441406,
2012-01-21, 03:27:04,VALID,1007.85,VALID,0,VALID,104,VALID,0,VALID,23.0511,VALID,41,VALID,0.278125,
2012-01-21, 03:28:04,VALID,1007.87,VALID,0,VALID,104,VALID,0,VALID,23.0511,VALID,41,VALID,0.0730469,
2012-01-21, 03:29:04,VALID,1007.89,VALID,0,VALID,104,VALID,0,VALID,23.0723,VALID,45,VALID,0.433594,
2012-01-21, 03:30:04,VALID,1007.9,VALID,0,VALID,104,VALID,0,VALID,23.09,VALID,170,VALID,0.864453,
2012-01-21, 03:31:04,VALID,1007.9,VALID,0,VALID,104,VALID,0,VALID,23.0511,VALID,170,VALID,0.908984,
2012-01-21, 03:32:04,VALID,1007.92,VALID,0,VALID,104,VALID,0,VALID,23.0511,VALID,172,VALID,0.825391,
2012-01-21, 03:33:04,VALID,1007.9,VALID,0,VALID,104,VALID,0,VALID,23.0511,VALID,171,VALID,0.717578,
2012-01-21, 03:34:04,VALID,1007.93,VALID,0,VALID,104,VALID,0,VALID,23.0511,VALID,171,VALID,0.725,
2012-01-21, 03:35:04,VALID,1007.92,VALID,0,VALID,104,VALID,0,VALID,23.0511,VALID,171,VALID,0.711328,
2012-01-21, 03:36:04,VALID,1007.9,VALID,0,VALID,104,VALID,0,VALID,23.0511,VALID,172,VALID,0.625391,
2012-01-21, 03:37:04,VALID,1007.9,VALID,0,VALID,104,VALID,0,VALID,23.0511,VALID,167,VALID,0.305078,
2012-01-21, 03:38:04,VALID,1007.87,VALID,0,VALID,104,VALID,0,VALID,23.0511,VALID,167,VALID,0.535547,
2012-01-21, 03:39:04,VALID,1007.87,VALID,0,VALID,104,VALID,0,VALID,23.0511,VALID,167,VALID,0.460156,
2012-01-21, 03:40:04,VALID,1007.84,VALID,0,VALID,104,VALID,0,VALID,23.0723,VALID,163,VALID,0.717578,
2012-01-21, 03:41:04,VALID,1007.82,VALID,0,VALID,104,VALID,0,VALID,23.0511,VALID,158,VALID,0.410547,
2012-01-21, 03:42:04,VALID,1007.83,VALID,0,VALID,104,VALID,0,VALID,23.0705,VALID,156,VALID,0.689062,
2012-01-21, 03:43:04,VALID,1007.81,VALID,0,VALID,104,VALID,0,VALID,23.0705,VALID,156,VALID,0.537891,
2012-01-21, 03:44:04,VALID,1007.79,VALID,0,VALID,104,VALID,0,VALID,23.0511,VALID,156,VALID,0.498437,
2012-01-21, 03:45:04,VALID,1007.75,VALID,0,VALID,104,VALID,0,VALID,23.09,VALID,156,VALID,0.337109,
2012-01-21, 03:46:04,VALID,1007.74,VALID,0,VALID,104,VALID,0,VALID,23.09,VALID,156,VALID,0.229687,
2012-01-21, 03:47:04,VALID,1007.77,VALID,0,VALID,104,VALID,0,VALID,23.09,VALID,155,VALID,0.4625,
2012-01-21, 03:48:04,VALID,1007.76,VALID,0,VALID,104,VALID,0,VALID,23.09,VALID,155,VALID,0.105469,
2012-01-21, 03:49:04,VALID,1007.75,VALID,0,VALID,104,VALID,0,VALID,23.1095,VALID,155,VALID,0.135937,
2012-01-21, 03:50:04,VALID,1007.75,VALID,0,VALID,104,VALID,0,VALID,23.1095,VALID,141,VALID,0.525781,
2012-01-21, 03:51:04,VALID,1007.75,VALID,0,VALID,104,VALID,0,VALID,23.09,VALID,141,VALID,0.373047,
2012-01-21, 03:52:04,VALID,1007.73,VALID,0,VALID,104,VALID,0,VALID,23.09,VALID,141,VALID,0.421875,
2012-01-21, 03:53:04,VALID,1007.76,VALID,0,VALID,104,VALID,0,VALID,23.09,VALID,141,VALID,0.219141,
2012-01-21, 03:54:04,VALID,1007.72,VALID,0,VALID,104,VALID,0,VALID,23.09,VALID,141,VALID,0.525781,
2012-01-21, 03:55:04,VALID,1007.73,VALID,0,VALID,104,VALID,0,VALID,23.0918,VALID,130,VALID,0.355469,
2012-01-21, 03:56:04,VALID,1007.71,VALID,0,VALID,104,VALID,0,VALID,23.1112,VALID,130,VALID,0.0582031,
2012-01-21, 03:57:04,VALID,1007.74,VALID,0,VALID,104,VALID,0,VALID,23.09,VALID,130,VALID,0.171094,
2012-01-21, 03:58:04,VALID,1007.73,VALID,0,VALID,104,VALID,0,VALID,23.1112,VALID,130,VALID,0.321875,
2012-01-21, 03:59:04,VALID,1007.72,VALID,0,VALID,104,VALID,0,VALID,23.09,VALID,130,VALID,0.406641,
2012-01-21, 04:00:04,VALID,1007.72,VALID,0,VALID,104,VALID,0,VALID,23.09,VALID,130,VALID,0.353516,
2012-01-21, 04:01:04,VALID,1007.66,VALID,0,VALID,104,VALID,0,VALID,23.09,VALID,130,VALID,0.355078,
2012-01-21, 04:02:04,VALID,1007.67,VALID,0,VALID,104,VALID,0,VALID,23.09,VALID,79,VALID,0.737109,